COMPLETED DISPATCHED CALLS FOR SERVICE

Welcome to the Jacksonville Sheriff’s Office Completed Dispatched Calls for Service webpage. This page displays calls for service made to the Jacksonville Sheriff's Office that have recently been completed. The data on this page is refreshed automatically.

This information is not intended to be used as official crime data. This program does not provide information about all crimes, and excludes specific incidents such as sexual assaults and child abuse.

Disclaimer: The Jacksonville Sheriff's Office makes every effort to produce and publish current and accurate information. No warranties, expressed or implied, are provided for the data herein, its use, or its interpretation. The services provided are for informational purposes only and should not be relied on for any type of legal action.

Last refreshed 8/31 15:42:14

Incident # Dispatched Block Address Signal Call Description  
150831597598 8-31 15:28 W 22ND ST AND FAIRFAX ST 1050 TRAFFIC STOP
150831597588 8-31 15:26 ROOSEVELT BLVD AND S EDGEWOOD AVE 16 ROAD OBSTRUCTION
150831597578 8-31 15:22 200 N BROOKVIEW DR 1066 CANCEL
150831597570 8-31 15:17 10500 LEM TURNER 1050 TRAFFIC STOP
150831597523 8-31 15:17 3700 N MAIN ST 63 DISPUTE
150831597568 8-31 15:16 E 3RD ST AND FRANKLIN ST 13 SUSPICIOUS PERSON
150831597567 8-31 15:16 COLLINS RD AND PLANTATION BAY DR 1050 TRAFFIC STOP
150831597547 8-31 15:15 N I295 EXPWY AND ATLANTIC BLVD 12 RECKLESS DRIVER
150831597560 8-31 15:14 1300 BROAD ST 12 RECKLESS DRIVER
150831597553 8-31 15:13 7500 SAUNDERSVILLE CT 1066 CANCEL
150831597548 8-31 15:13 1200 S MC DUFF AVE 64 NOISE COMPLAINT
150831597551 8-31 15:13 4700 QUEEN LN 1066 CANCEL
150831597517 8-31 15:11 4500 E ANTLER HILL DR 1066 CANCEL
150831597543 8-31 15:10 S I295 EXPWY AND N MAIN ST 4 AUTO CRASH
150831597456 8-31 15:08 100 N JULIA ST 63 DISPUTE
150831597521 8-31 15:07 S KERNAN BLVD AND GEHRIG DR 1066 CANCEL
150831597531 8-31 15:07 W 8TH ST AND N MYRTLE AVE 73 DRUG INVESTIGATION
150831597534 8-31 15:05 N I95 EXPWY AND EMERSON ST 96 ASSIST MOTORIST
150831597527 8-31 15:04 5600 N COLONY PINE CIR 1050 TRAFFIC STOP
150831597503 8-31 14:56 RIBAULT RIVER LN AND WINTON DR 56 JUVENILE COMPLAINT
150831597493 8-31 14:55 N MAIN ST AND MARTIN LUTHER KING JR PKWY 16 ROAD OBSTRUCTION
150831597385 8-31 14:54 100 W 17TH ST 21R BURGLARY RESIDENCE
150831597499 8-31 14:54 5100 FIRESTONE RD 13 SUSPICIOUS PERSON
150831597495 8-31 14:51 1100 N BROAD ST 12 RECKLESS DRIVER
150831597446 8-31 14:49 1000 E 24TH ST 32 BURGLAR ALARM - AUDIBLE
150831597491 8-31 14:48 11900 BEACH BLVD 17 PERSON DOWN OR SICK
150831597478 8-31 14:46 10800 HARTS RD 96 ASSIST MOTORIST
150831597485 8-31 14:46 9000 RIDGE BLVD 1066 CANCEL
150831597476 8-31 14:45 10500 LEM TURNER RD 4 AUTO CRASH
150831597477 8-31 14:45 1800 SOUTHSIDE BLVD 32X SILENT ALARM (ROBBERY PANIC OR AWARE)
150831597471 8-31 14:44 1000 N EDGEWOOD AVE 4 AUTO CRASH
150831597475 8-31 14:44 5100 SOUTH PINES DR 1066 CANCEL
150831597468 8-31 14:40 5300 SOUTEL DR 38 TRAFFIC ASSIGNMENT
150831597462 8-31 14:38 3000 PHILLIPS HWY 13 SUSPICIOUS PERSON
150831597455 8-31 14:36 EM 1050 TRAFFIC STOP
150831597450 8-31 14:36 N I295 EXPWY AND N MAIN ST 12 RECKLESS DRIVER
150831597454 8-31 14:35 1000 W 12TH ST 1066 CANCEL
150831597452 8-31 14:33 1300 VEGA ST 63 DISPUTE
150831597435 8-31 14:33 5600 W UNIVERSITY BLVD 76 ASSIST OTHER AGENCY
150831597432 8-31 14:32 100 W STATE ST 32 BURGLAR ALARM - AUDIBLE
150831597447 8-31 14:32 100 S FULLER WARREN BRG 12 RECKLESS DRIVER
150831597448 8-31 14:30 9000 MERRILL RD 63 DISPUTE
150831597411 8-31 14:30 2900 SPRING PARK RD 63 DISPUTE
150831597449 8-31 14:30 E LA VENTURA DR AND 103RD ST 13 SUSPICIOUS PERSON
150831597445 8-31 14:29 NORMANDY BLVD AND S I295 EXPWY 16 ROAD OBSTRUCTION
150831597428 8-31 14:28 3600 ELOISE ST 13 SUSPICIOUS PERSON
150831597441 8-31 14:27 NORMANDY BLVD AND NORMANDY VILLAGE PKWY 96 ASSIST MOTORIST
150831597431 8-31 14:26 12900 N MAIN ST 14C VANDALISM CONVEYANCE
150831597427 8-31 14:26 200 E 9TH ST 6388 DISPUTE WITH ASSAULT
150831597438 8-31 14:25 9300 ATLANTIC 1050 TRAFFIC STOP
150831597430 8-31 14:24 S HOGAN ST AND WATER ST 76 ASSIST OTHER AGENCY
150831597206 8-31 14:23 7500 SOUTHSIDE BLVD 9 THEFT
150831597429 8-31 14:23 5300 NEW KINGS RD 16 ROAD OBSTRUCTION
150831597422 8-31 14:19 2100 GRAND ST 56 JUVENILE COMPLAINT
150831597418 8-31 14:18 BLANDING BLVD AND TOWNSEND RD 1050 TRAFFIC STOP
150831597349 8-31 14:16 3700 LORETTO RD 22 DOMESTIC
150831597410 8-31 14:16 N MAIN ST AND W 45TH ST 16 ROAD OBSTRUCTION
150831597360 8-31 14:15 5800 JACK RD 19 ANIMAL INVESTIGATION
150831597408 8-31 14:14 9300 ATLANTIC BLVD 76 ASSIST OTHER AGENCY
150831597402 8-31 14:13 NORMANDY BLVD AND FOURAKER RD 38 TRAFFIC ASSIGNMENT
150831597406 8-31 14:13 DUVAL/AIRPORT 1050 TRAFFIC STOP
150831597387 8-31 14:12 3600 JAMESTOWN LN 9T THEFT (TELESERVE)
150831597399 8-31 14:10 11200 E WINDTREE DR 63 DISPUTE
150831597398 8-31 14:09 STJOHNS/I295 1050 TRAFFIC STOP
150831597371 8-31 14:08 2200 KINGS PARK DR 95IDT IDENTITY THEFT TELESERVE
150831597391 8-31 14:07 200 W UNION ST 9 THEFT
150831597340 8-31 14:07 700 N LINCOLN CT 63 DISPUTE
150831597396 8-31 14:06 5500 OAK CROSSING CT 63 DISPUTE
150831597365 8-31 14:06 3500 BUCKHEAD RD 32 BURGLAR ALARM - AUDIBLE
150831597274 8-31 14:05 4800 N MAIN ST 22 DOMESTIC
150831597386 8-31 14:05 9300 ATLANTIC BLVD 27 MENTALLY ILL PERSON
150831597226 8-31 14:04 3100 FLOWER GARDEN LN 63 DISPUTE
150831597390 8-31 14:03 I295 NB AND COLLINS RD 96 ASSIST MOTORIST
150831597325 8-31 14:01 1400 W 14TH ST 52 ILLEGAL DUMPING
150831597362 8-31 14:01 2200 W BEAVER ST 37 UNVERIFIED 911 CALL
150831597378 8-31 13:58 WEDGEFIELD BLVD AND MERRILL RD 96 ASSIST MOTORIST
150831597376 8-31 13:57 LOMAX ST AND RIVERSIDE AVE 29 WIRE DOWN
150831597248 8-31 13:57 14100 BEACH BLVD 50 FOUND/ABANDONED PROPERTY
150831597370 8-31 13:57 BEACH BLVD AND N I295 EXPWY 12 RECKLESS DRIVER
150831597366 8-31 13:56 4700 W YELLOW STAR LN 11 ABANDONED VEHICLE
150831597372 8-31 13:55 11300 DUNN CREEK RD 12 RECKLESS DRIVER
150831597359 8-31 13:54 LAUREL RD AND MARCO PL 13 SUSPICIOUS PERSON
150831597361 8-31 13:54 7600 BLANDING BLVD 87 DAMAGED PROPERTY
150831597368 8-31 13:54 DUNN AVE AND ARMSDALE RD 56 JUVENILE COMPLAINT
150831597299 8-31 13:47 3300 PEACH DR 32 BURGLAR ALARM - AUDIBLE
150831597351 8-31 13:47 SAN JOSE BLVD AND CROWN POINT RD 3 53 HIT AND RUN CRASH W/FIRE
150831597339 8-31 13:47 8100 BLANDING BLVD 63 DISPUTE
150831597347 8-31 13:46 1000 N LIBERTY ST 6388 DISPUTE WITH ASSAULT
150831597344 8-31 13:45 DUNN AVE AND ARMSDALE RD 13 SUSPICIOUS PERSON
150831597343 8-31 13:43 11300 DUNN CREEK RD 12 RECKLESS DRIVER
150831597336 8-31 13:41 9400 SAN JOSE BLVD 9T THEFT (TELESERVE)
150831597120 8-31 13:40 500 E 59TH ST 22 DOMESTIC
150831597330 8-31 13:36 3700 LEHIGH ST 21CJ BURGLARY CONVEYANCE JUST OCCURRED
150831597328 8-31 13:35 1600 GARDEN ST 60 SUICIDE OR ATTEMPT
150831597326 8-31 13:33 2400 GRAHAM AVE 86 LOST PROPERTY
150831597322 8-31 13:31 2900 S ST JOHNS BLUFF RD 76 ASSIST OTHER AGENCY
150831597284 8-31 13:28 8800 PHILLIPS HWY 63 DISPUTE
150831597311 8-31 13:28 4200 WOODLEY CREEK RD 95IDT IDENTITY THEFT TELESERVE
150831597315 8-31 13:28 800 POST ST 4 AUTO CRASH
150831597233 8-31 13:27 6800 EDMONDS LN 19 ANIMAL INVESTIGATION
150831597317 8-31 13:27 2100 W 16TH ST 1066 CANCEL
150831597289 8-31 13:27 2000 FIGARO LN 9T THEFT (TELESERVE)
150831597258 8-31 13:27 1000 N EDGEWOOD AVE 63 DISPUTE
150831597313 8-31 13:26 3700 S SAN PABLO RD 76 ASSIST OTHER AGENCY
150831597312 8-31 13:25 800 BERT RD 13 SUSPICIOUS PERSON
150831597203 8-31 13:23 100 W FORSYTH ST 63 DISPUTE
150831597268 8-31 13:23 5600 MERRILL RD 63 DISPUTE
150831597222 8-31 13:23 2700 DELLWOOD AVE 63 DISPUTE
150831597300 8-31 13:23 N BROAD ST AND W STATE ST 16 ROAD OBSTRUCTION
150831597308 8-31 13:23 1600 NOCATEE AVE 63 DISPUTE
150831597303 8-31 13:23 3300 POWERS AVE 4 AUTO CRASH
150831597287 8-31 13:22 11500 E BIRCH FOREST CIR 32 BURGLAR ALARM - AUDIBLE
150831597304 8-31 13:22 BUSCHEXIT N I95 RP AND N I95 EXPWY 4 AUTO CRASH
150831597191 8-31 13:20 7400 POWERS AVE 14R VANDALISM RESIDENCE
150831597281 8-31 13:19 500 E BAY ST 8T MISSING PERSON (TELESERVE)
150831597244 8-31 13:18 1600 E BRIER WAY 95IDT IDENTITY THEFT TELESERVE
150831597232 8-31 13:18 4200 WOODLEY CREEK RD 95IDT IDENTITY THEFT TELESERVE
150831597231 8-31 13:16 1500 DOLPH RD 9 THEFT
150831597290 8-31 13:16 4800 LENOIR AVE 37 UNVERIFIED 911 CALL
150831597224 8-31 13:14 4100 DUNN AVE 88 ASSAULT
150831597296 8-31 13:14 600 W UNION ST 60 SUICIDE OR ATTEMPT
150831597257 8-31 13:12 14000 HUBBLE DR 9 THEFT
150831597265 8-31 13:12 ATLANTIC BLVD AND S I95 EXPWY 12 RECKLESS DRIVER
150831597291 8-31 13:12 11500 HARTS RD 76 ASSIST OTHER AGENCY
150831597261 8-31 13:09 100 W UNION ST 2 63 DISPUTE IMPAIRED/INTOXICATED
150831597263 8-31 13:07 S CHAFFEE RD AND CRYSTAL SPRINGS RD 4 AUTO CRASH
150831597277 8-31 13:06 J TURNER BUTLER BLVD AND S I95 EXPWY 16 ROAD OBSTRUCTION
150831597280 8-31 13:06 11200 LEM TURNER RD 13 SUSPICIOUS PERSON
150831597279 8-31 13:06 I95/I10 16 ROAD OBSTRUCTION
150831597278 8-31 13:05 6800 NORMANDY BLVD 3 HIT AND RUN CRASH
150831597143 8-31 13:04 1500 N MARKET ST 63 DISPUTE
150831597276 8-31 13:04 JTB/ GATE PKWY 38 TRAFFIC ASSIGNMENT
150831597272 8-31 13:03 14000 BENTWOOD AVE 76 ASSIST OTHER AGENCY
150831597273 8-31 13:02 1500 CASSAT AVE 16 ROAD OBSTRUCTION
150831597266 8-31 13:02 LEM TURNER RD AND DUNN AVE 0 63 ARMED DISPUTE
150831597264 8-31 13:02 HARTSFIELD RD AND MERRILL RD 16 ROAD OBSTRUCTION
150831597270 8-31 13:02 2800 W 6TH ST 22 DOMESTIC
150831597271 8-31 13:01 MAIN/UNION 1050 TRAFFIC STOP
150831597262 8-31 13:01 2500 MAYPORT RD 64 NOISE COMPLAINT
150831597212 8-31 13:01 8700 6TH AVE 32 BURGLAR ALARM - AUDIBLE
150831597240 8-31 13:00 3700 TOLEDO RD 63 DISPUTE
150831597236 8-31 13:00 4200 APPLETON AVE 63 DISPUTE
150831597210 8-31 12:59 W MONROE ST AND N JULIA ST 27 MENTALLY ILL PERSON
150831597245 8-31 12:59 N I95 EXPWY AND PHILLIPS HWY 96 ASSIST MOTORIST
150831597259 8-31 12:57 800 PRUDENTIAL DR 13 SUSPICIOUS PERSON
150831597255 8-31 12:57 100 S BUCKMAN BRG 12 RECKLESS DRIVER
150831597250 8-31 12:57 11200 ALUMNI WAY 60 SUICIDE OR ATTEMPT
150831597253 8-31 12:55 DUVAL RD AND N ARMSDALE RD 1050 TRAFFIC STOP
150831597252 8-31 12:55 7100 POWERS AVE 95 FRAUD/FORGED (CHECK, ID, RX)
150831597247 8-31 12:54 3900 MONUMENT RD 32 BURGLAR ALARM - AUDIBLE
150831597189 8-31 12:54 2600 DAHLONEGA DR 21C BURGLARY CONVEYANCE
150831597249 8-31 12:54 RIVERWALK/PEARL 13 SUSPICIOUS PERSON
150831597213 8-31 12:54 10500 PHILLIPS HWY 4 AUTO CRASH
150831597228 8-31 12:54 POWERS AVE AND W UNIVERSITY BLVD 4 AUTO CRASH
150831597243 8-31 12:53 DUNN AVE AND HARTS RD 91 TRAFFIC LIGHT/RR CROSSING MALFUNCTION
150831597239 8-31 12:51 100 E UNION ST 60 SUICIDE OR ATTEMPT
150831597235 8-31 12:49 2400 BROWARD RD 32 BURGLAR ALARM - AUDIBLE
150831597234 8-31 12:48 5300 BRANNON AVE 21R BURGLARY RESIDENCE
150831597190 8-31 12:47 1900 WIGMORE ST 95 FRAUD/FORGED (CHECK, ID, RX)
150831597220 8-31 12:46 9200 ATLANTIC BLVD 4 AUTO CRASH
150831597230 8-31 12:45 4000 W OLD MILL COVE TRL 60 SUICIDE OR ATTEMPT
150831597187 8-31 12:44 7300 BLOXHAM AVE 1066 CANCEL
150831597221 8-31 12:43 3700 N CATHEDRAL OAKS PL 32 BURGLAR ALARM - AUDIBLE
150831597176 8-31 12:43 NORMANDY BLVD AND FOURAKER RD 2 22 DOMESTIC DISTURBANCE
150831597227 8-31 12:43 LEM TURNER/DUNN 1050 TRAFFIC STOP
150831597205 8-31 12:41 11200 LEM TURNER RD 73 DRUG INVESTIGATION
150831597199 8-31 12:41 2900 E LAUDERDALE DR 63 DISPUTE
150831597211 8-31 12:41 12700 DUNN CREEK RD 16 ROAD OBSTRUCTION
150831597214 8-31 12:40 3700 WINTON DR 11 ABANDONED VEHICLE
150831597108 8-31 12:39 PARK ST AND CHERRY ST 73 DRUG INVESTIGATION
150831597208 8-31 12:39 5300 W 5TH ST 16 ROAD OBSTRUCTION
150831597140 8-31 12:37 100 SHIRCLIFF WAY 13 SUSPICIOUS PERSON
150831597204 8-31 12:37 J TURNER BUTLER BLVD AND HODGES BLVD 16 ROAD OBSTRUCTION
150831597195 8-31 12:35 9500 CROSSHILL BLVD 61 FIGHT
150831597200 8-31 12:35 3000 DUNN AVE 1050 TRAFFIC STOP
150831597197 8-31 12:35 10300 NORMANWOOD CT 1066 CANCEL
150831597196 8-31 12:33 9800 BEACH BLVD 63 DISPUTE
150831597194 8-31 12:32 600 W 18TH ST 76 ASSIST OTHER AGENCY
150831597188 8-31 12:29 7800 PAUL REVERE DR 60 SUICIDE OR ATTEMPT
150831597167 8-31 12:28 2100 THELMA ST 63 DISPUTE
150831597145 8-31 12:27 9700 LEAHY RD 9T THEFT (TELESERVE)
150831597180 8-31 12:25 9800 CREEKFRONT RD 32 BURGLAR ALARM - AUDIBLE
150831597178 8-31 12:25 NORMANDY BLVD AND FOURAKER RD 12 RECKLESS DRIVER
150831597177 8-31 12:24 3000 NOLAN ST 27 MENTALLY ILL PERSON
150831597098 8-31 12:23 500 E BAY ST 9T THEFT (TELESERVE)
150831597171 8-31 12:22 1000 WATER ST 2 63 DISPUTE IMPAIRED/INTOXICATED
150831597122 8-31 12:22 8000 HARE AVE 19 ANIMAL INVESTIGATION
150831597172 8-31 12:21 6100 TUSCONY CIR 21RJ BURGLARY RESIDENCE JUST OCCURRED
150831597170 8-31 12:20 1700 S SAN PABLO RD 76 ASSIST OTHER AGENCY
150831597169 8-31 12:18 1000 S LANE AVE 4 AUTO CRASH
150831597164 8-31 12:18 MARK AVE AND MITCHELL AVE 76 ASSIST OTHER AGENCY
150831597163 8-31 12:15 8600 FREEDOM CROSSING TRAIL 96 ASSIST MOTORIST
150831597160 8-31 12:15 3100 W EDGEWOOD AVE 76 ASSIST OTHER AGENCY
150831597150 8-31 12:13 S I95 EXPWY 12 RECKLESS DRIVER
150831597103 8-31 12:12 1700 BASSETT RD 22 DOMESTIC
150831597153 8-31 12:10 2800 S SAN PABLO RD 19 ANIMAL INVESTIGATION
150831597152 8-31 12:09 N I295 EXPWY AND S I95 EXPWY 12 RECKLESS DRIVER
150831597151 8-31 12:08 ATLANTIC BLVD AND S UNIVERSITY BLVD 16 ROAD OBSTRUCTION
150831597135 8-31 12:08 5200 BELFORT RD 3 HIT AND RUN CRASH
150831597148 8-31 12:06 CHURCH AND MAIN 12 RECKLESS DRIVER
150831597146 8-31 12:06 2500 JAMMES RD 13 SUSPICIOUS PERSON
150831597089 8-31 12:05 1000 BERT RD 88 ASSAULT
150831597105 8-31 12:05 6400 WILSON BLVD 2 63 DISPUTE IMPAIRED/INTOXICATED
150831597071 8-31 12:04 6300 GRAVES ST 9 THEFT
150831597134 8-31 12:04 LEM TURNER RD AND CLYDE DR 3 53 HIT AND RUN CRASH W/FIRE
150831597133 8-31 12:02 9500 CROSSHILL BLVD 13 SUSPICIOUS PERSON
150831597128 8-31 12:01 SOUTHSIDE BLVD AND BELLE RIVE BLVD 4 AUTO CRASH
150831597121 8-31 12:00 800 S LANE AVE 70 COUNTERFEIT
150831597125 8-31 12:00 N I95 EXPWY AND EMERSON ST 1066 CANCEL
150831597124 8-31 11:59 4600 PHILLIPS HWY 63 DISPUTE
150831597118 8-31 11:56 7200 103RD ST 63 DISPUTE
150831597070 8-31 11:56 1200 LABELLE ST 95IDT IDENTITY THEFT TELESERVE
150831597112 8-31 11:55 REBA AVE AND VICTOR ST 63 DISPUTE
150831597116 8-31 11:55 DIVISION ST AND MARTIN LUTHER KING JR PKWY 1050 TRAFFIC STOP
150831597115 8-31 11:54 BEACH BLVD AND HODGES BLVD 96 ASSIST MOTORIST
150831597110 8-31 11:54 8000 PHILLIPS HWY 4 AUTO CRASH
150831597114 8-31 11:54 500 E BAY ST 95IDT IDENTITY THEFT TELESERVE
150831596978 8-31 11:53 1000 E 24TH ST 95 FRAUD/FORGED (CHECK, ID, RX)
150831597094 8-31 11:52 8200 ROCKY CREEK DR 63 DISPUTE
150831597093 8-31 11:51 4400 W MELVIN CIR 4 AUTO CRASH
150831597078 8-31 11:51 4400 CONFEDERATE POINT RD 1066 CANCEL
150831597102 8-31 11:51 1400 RIVERPLACE BLVD 8 MISSING PERSON
150831597027 8-31 11:50 2400 JAMMES RD 14C VANDALISM CONVEYANCE
150831597095 8-31 11:46 TOUCHTON RD AND SOUTHSIDE BLVD 16 ROAD OBSTRUCTION
150831597091 8-31 11:43 5800 NEW KINGS RD 63 DISPUTE
150831597085 8-31 11:43 2700 N MAIN ST 79 OBSCENE / THREAT CALL OR LETTER
150831597092 8-31 11:43 6400 HANNAH STABLES DR 1050 TRAFFIC STOP
150831597086 8-31 11:42 11200 S ST JOHNS INDUSTRIAL PKWY 21C BURGLARY CONVEYANCE
150831597090 8-31 11:42 3700 BLANDING BLVD 95 FRAUD/FORGED (CHECK, ID, RX)
150831597072 8-31 11:41 5700 N UNIVERSITY CLUB BLVD 1066 CANCEL
150831597080 8-31 11:41 5200 CHENANGO BLVD 63 DISPUTE
150831597064 8-31 11:41 13000 SPRINGS MANOR DR 21C BURGLARY CONVEYANCE
150831596984 8-31 11:41 7700 S LEESBURG DR 96 ASSIST MOTORIST
150831597063 8-31 11:41 1900 SPEARING ST 63 DISPUTE
150831597081 8-31 11:40 5000 CLEVELAND RD 1066 CANCEL
150831597013 8-31 11:40 MERRILL RD AND WEDGEFIELD BLVD 4 AUTO CRASH
150831597060 8-31 11:39 100 W MATHEWS BRG 16 ROAD OBSTRUCTION
150831597079 8-31 11:38 900 BERT RD 13 SUSPICIOUS PERSON
150831597074 8-31 11:37 7700 HARE AVE 63 DISPUTE
150831597075 8-31 11:37 S I295 EXPWY AND OLD ST AUGUSTINE RD 16 ROAD OBSTRUCTION
150831597073 8-31 11:37 10300 MEADOW POINT DR 63 DISPUTE
150831597069 8-31 11:35 1500 DENNIS ST 4 AUTO CRASH
150831597066 8-31 11:33 EDISON AVE AND LELAND ST 80 PROSTITUTION (ONLY)
150831597045 8-31 11:29 2300 E IRONSTONE DR 88 ASSAULT
150831597054 8-31 11:29 12700 DUNNS VIEW DR 21RP BURGLARY RESIDENCE IN PROGRESS
150831596997 8-31 11:29 7500 POWERS AVE 63 DISPUTE
150831597055 8-31 11:29 N DAVIS ST AND W 8TH ST 4 AUTO CRASH
150831597026 8-31 11:28 2000 JAMMES RD 63 DISPUTE
150831597049 8-31 11:28 OLD ST AUGUSTINE RD AND S I95 EXPWY 16 ROAD OBSTRUCTION
150831597053 8-31 11:28 1700 KINGS RD 1050 TRAFFIC STOP
150831597044 8-31 11:28 12200 WHISTLING CT 68 CON GAME/FLIM FLAM
150831597046 8-31 11:28 ATLANTIC BLVD AND ST ELMO DR 12 RECKLESS DRIVER
150831597052 8-31 11:27 5900 LUELLA ST 96 ASSIST MOTORIST
150831597030 8-31 11:27 1200 LABELLE ST 95IDT IDENTITY THEFT TELESERVE
150831597024 8-31 11:25 200 E 6TH ST 9T THEFT (TELESERVE)
150831597019 8-31 11:25 6500 ECTOR PL 9T THEFT (TELESERVE)
150831597038 8-31 11:22 BLANDING BLVD AND MORSE AVE 1050 TRAFFIC STOP
150831597034 8-31 11:22 13800 BEACH BLVD 4 AUTO CRASH
150831597035 8-31 11:21 11900 BEACH BLVD 9 THEFT
150831597029 8-31 11:19 14400 MANDARINRD 38 TRAFFIC ASSIGNMENT
150831597022 8-31 11:19 1800 AVONDALE CIR 32 BURGLAR ALARM - AUDIBLE
150831596909 8-31 11:19 800 CASSAT AVE 63 DISPUTE
150831597025 8-31 11:18 1400 ATLANTIC BLVD 13 SUSPICIOUS PERSON
150831596949 8-31 11:17 900 N BROOKVIEW DR 19 ANIMAL INVESTIGATION
150831597023 8-31 11:17 1400 DUNN AVE 21CJ BURGLARY CONVEYANCE JUST OCCURRED
150831597012 8-31 11:15 S OLD MIDDLEBURG RD AND 103RD ST 4 AUTO CRASH
150831597016 8-31 11:15 4600 BANKHEAD AVE 13 SUSPICIOUS PERSON
150831597017 8-31 11:13 8200 E CONCORD BLVD 95ID IDENTITY THEFT
150831596992 8-31 11:13 5000 KEN RD 21R BURGLARY RESIDENCE
150831597009 8-31 11:13 3300 UNIVERSITY BLVD 76 ASSIST OTHER AGENCY
150831597003 8-31 11:12 6100 118TH ST 37 UNVERIFIED 911 CALL
150831597015 8-31 11:11 E BAY ST AND CATHERINE ST 27 MENTALLY ILL PERSON
150831597006 8-31 11:08 5000 GATE PKWY 76 ASSIST OTHER AGENCY
150831597000 8-31 11:08 8000 MERRILL RD 1066 CANCEL
150831596994 8-31 11:08 4600 PHILLIPS HWY 63 DISPUTE
150831596861 8-31 11:08 700 EDISON AVE 2288 DOMESTIC DISPUTE WITH/ASSAULT
150831597004 8-31 11:07 UNION/LAURA 16 ROAD OBSTRUCTION
150831596940 8-31 11:07 1000 BERT RD 1066 CANCEL
150831596999 8-31 11:06 N I295 EXPWY AND ATLANTIC BLVD 76 ASSIST OTHER AGENCY
150831596990 8-31 11:04 6000 ARGYLE FOREST BLVD 13 SUSPICIOUS PERSON
150831596955 8-31 11:02 200 N HOGAN ST 37 UNVERIFIED 911 CALL
150831596970 8-31 11:02 1800 N LIBERTY ST 88 ASSAULT
150831596950 8-31 11:01 5200 NORWOOD AVE 8 MISSING PERSON
150831596947 8-31 11:00 1400 W 22ND ST 11 ABANDONED VEHICLE
150831596966 8-31 10:59 1500 REDBIRD CREEK DR 21CT BURGLARY CONVEYANCE TELESERVE
150831596973 8-31 10:59 J TURNER BUTLER BLVD AND S KERNAN BLVD 4 AUTO CRASH
150831596969 8-31 10:54 200 S HALSEMA RD 9 THEFT
150831596971 8-31 10:54 PANTHER CREEK PKWY AND S CHAFFEE RD 63 DISPUTE
150831596972 8-31 10:54 BISCAYNE/MARSH HEN 1050 TRAFFIC STOP
150831596963 8-31 10:53 8300 S OLD KINGS RD 63 DISPUTE
150831596926 8-31 10:52 200 CHEROKEE ST 63 DISPUTE
150831596879 8-31 10:52 7100 W LUCKY DR 32 BURGLAR ALARM - AUDIBLE
150831596965 8-31 10:51 S ARLINGTON RD AND CRANE AVE 38 TRAFFIC ASSIGNMENT
150831596956 8-31 10:50 2200 W BEAVER ST 37 UNVERIFIED 911 CALL
150831596959 8-31 10:49 1300 FAIRFAX ST 56 JUVENILE COMPLAINT
150831596904 8-31 10:48 15500 BREAM RD 9T THEFT (TELESERVE)
150831596898 8-31 10:48 GOLFAIR BLVD AND S I95 EXPWY 9T THEFT (TELESERVE)
150831596895 8-31 10:47 4800 E LOFTY PINES CIR 32 BURGLAR ALARM - AUDIBLE
150831596943 8-31 10:45 8500 TOUCHTON RD 4 63 CRASH INVOLVING DISPUTE
150831596948 8-31 10:45 200 BARONY DR 32 BURGLAR ALARM - AUDIBLE
150831596946 8-31 10:45 8600 ATLANTIC BLVD 21C BURGLARY CONVEYANCE
150831596945 8-31 10:45 8500 TOUCHTON RD 4 53 TRAFFIC CRASH PERSON INJURED
150831596941 8-31 10:44 1700 KINGS AVE 60 SUICIDE OR ATTEMPT
150831596952 8-31 10:44 S LANE AVE AND WILSON BLVD 1066 CANCEL
150831596936 8-31 10:43 1400 GATOR BOWL BLVD 32 BURGLAR ALARM - AUDIBLE
150831596878 8-31 10:41 7400 POWERS AVE 32 BURGLAR ALARM - AUDIBLE
150831596935 8-31 10:41 400 MONUMENT RD 9P THEFT IN PROGRESS
150831596933 8-31 10:41 S TERRY PARKER DR AND ECTOR RD 4 53 TRAFFIC CRASH PERSON INJURED
150831596937 8-31 10:40 8000 BAYBERRY RD 38 TRAFFIC ASSIGNMENT
150831596934 8-31 10:40 J TURNER BUTLER BLVD AND BELFORT RD 4 AUTO CRASH
150831596931 8-31 10:38 200 E FORSYTH ST 1066 CANCEL
150831596922 8-31 10:37 400 TRESCA RD 96 ASSIST MOTORIST
150831596873 8-31 10:36 2100 INWOOD TER 63 DISPUTE
150831596913 8-31 10:36 3800 ANDERSON WOODS DR 63 DISPUTE
150831596921 8-31 10:35 N I95 EXPWY AND ZOO PKWY 19 ANIMAL INVESTIGATION
150831596876 8-31 10:35 1100 W DEFENDER CT 95IDT IDENTITY THEFT TELESERVE
150831596917 8-31 10:35 2500 JANETTE ST 10R VEHICLE THEFT RECOVERY
150831596920 8-31 10:34 600 PECAN PARK RD 11 ABANDONED VEHICLE
150831596856 8-31 10:33 7700 CROSSTREE LN 1066 CANCEL
150831596854 8-31 10:33 2300 W FLO DR 9T THEFT (TELESERVE)
150831596901 8-31 10:32 2900 DOWNING ST 21RJ BURGLARY RESIDENCE JUST OCCURRED
150831596905 8-31 10:32 1300 DOMAS DR 63 DISPUTE
150831596896 8-31 10:32 CHAPPI WAY AND E LAKE MANDARIN CIR 11 ABANDONED VEHICLE
150831596908 8-31 10:32 CASSAT/NAPA 1050 TRAFFIC STOP
150831596899 8-31 10:31 2100 BROADWAY AVE 13 SUSPICIOUS PERSON
150831596897 8-31 10:31 W I10 EXPWY AND CASSAT AVE 12 RECKLESS DRIVER
150831596892 8-31 10:31 UNIVERSITY BLVD AND CESERY BLVD 4 AUTO CRASH
150831596889 8-31 10:30 10500 LEM TURNER RD 9 THEFT
150831596887 8-31 10:29 1900 SWEET OLIVE CT 11 ABANDONED VEHICLE
150831596877 8-31 10:28 TURTON AVE AND GIBSON AVE 11 ABANDONED VEHICLE
150831596891 8-31 10:27 MARTIN LUTHER KING JR PKWY AND E 8TH ST 16 ROAD OBSTRUCTION
150831596839 8-31 10:27 BROOKWOOD RD AND SAN JOSE BLVD 27 MENTALLY ILL PERSON
150831596881 8-31 10:27 S I95 EXPWY AND J TURNER BUTLER BLVD 4 AUTO CRASH
150831596858 8-31 10:26 4900 BELFORT RD 37 UNVERIFIED 911 CALL
150831596890 8-31 10:25 BROWARD RD AND DE PAUL DR 1050 TRAFFIC STOP
150831596888 8-31 10:24 WB JTB/I95 1050 TRAFFIC STOP
150831596804 8-31 10:23 300 MONUMENT RD 3T HIT AND RUN CRASH - TELESERVE
150831596883 8-31 10:22 AVENUE B AND W 45TH ST 30J ABDUCTION - JUST OCCURRED
150831596816 8-31 10:21 400 WADE DR 22 DOMESTIC
150831596884 8-31 10:21 I295/DUVAL RD 1050 TRAFFIC STOP
150831596882 8-31 10:20 6700 RESTLAWN DR 10R VEHICLE THEFT RECOVERY
150831596805 8-31 10:20 600 BEECHWOOD ST 63 DISPUTE
150831596822 8-31 10:20 1400 SAN MARCO BLVD 27 MENTALLY ILL PERSON
150831596866 8-31 10:20 5000 E ROMILLY DR 60 SUICIDE OR ATTEMPT
150831596869 8-31 10:19 2600 N MAIN ST 63 DISPUTE
150831596703 8-31 10:19 1500 N OLD MIDDLEBURG RD 14R VANDALISM RESIDENCE
150831596875 8-31 10:19 S I95 EXPWY AND KINGS RD 4 AUTO CRASH
150831596835 8-31 10:18 11700 SAN JOSE BLVD 22 DOMESTIC
150831596865 8-31 10:18 N I95 EXPWY AND KINGS RD 4 AUTO CRASH
150831596769 8-31 10:18 1400 HENDRICKS AVE 2 63 DISPUTE IMPAIRED/INTOXICATED
150831596824 8-31 10:15 2800 DOWNING ST 11 ABANDONED VEHICLE
150831596818 8-31 10:13 12000 WATCH TOWER DR 21R BURGLARY RESIDENCE
150831596836 8-31 10:12 8200 SUSIE ST 27 MENTALLY ILL PERSON
150831596849 8-31 10:11 11000 PHILIPS HWY 38 TRAFFIC ASSIGNMENT
150831596845 8-31 10:10 J TURNER BUTLER BLVD AND S KERNAN BLVD 12 RECKLESS DRIVER
150831596844 8-31 10:10 1200 N BROAD ST 2 22 DOMESTIC DISTURBANCE
150831596841 8-31 10:09 E AIRPORT CENTER DR AND STARRATT RD 63 DISPUTE
150831596834 8-31 10:08 11500 JOHNSON CREEK CIR 9 THEFT
150831596810 8-31 10:06 1500 WINDLE ST 63 DISPUTE
150831596827 8-31 10:03 8500 HECKSCHER DR 63 DISPUTE
150831596828 8-31 10:02 SUSIE ST AND BRANNON AVE 0 13 ARMED SUSPICIOUS PERSON
150831596820 8-31 10:00 MAIN/MESMS CIR 13 SUSPICIOUS PERSON
150831596793 8-31 09:59 5000 J TURNER BUTLER BLVD 14C VANDALISM CONVEYANCE
150831596819 8-31 09:59 1400 LANE 1050 TRAFFIC STOP
150831596814 8-31 09:58 SUMMER PINES DR AND OLD ST AUGUSTINE RD 12 RECKLESS DRIVER
150831596817 8-31 09:57 E I10 EXPWY AND STOCKTON ST 16 ROAD OBSTRUCTION
150831596812 8-31 09:57 BLANDING BLVD AND CASSAT AVE 91 TRAFFIC LIGHT/RR CROSSING MALFUNCTION
150831596725 8-31 09:57 9600 MC DANIELS DR 63 DISPUTE
150831596786 8-31 09:57 9600 MC DANIELS DR 63 DISPUTE
150831596775 8-31 09:54 7200 S OLD KINGS RD 63 DISPUTE
150831596792 8-31 09:54 9200 HAWKS RUN LN 95IDT IDENTITY THEFT TELESERVE
150831596773 8-31 09:53 11000 OLD ST AUGUSTINE RD 14B VANDALISM BUSINESS
150831596802 8-31 09:53 6900 WILSON BLVD 4 AUTO CRASH
150831596800 8-31 09:53 14500 AQUA VISTA CT 32 BURGLAR ALARM - AUDIBLE
150831596798 8-31 09:51 S I95 EXPWY AND BAYMEADOWS RD 12 RECKLESS DRIVER
150831596790 8-31 09:50 1000 BROWARD RD 21CT BURGLARY CONVEYANCE TELESERVE
150831596799 8-31 09:50 6800 PHILLIPS HWY 38 TRAFFIC ASSIGNMENT
150831596760 8-31 09:49 8500 ADDISON RD 86T LOST PROPERTY (TELESERVE)
150831596795 8-31 09:48 500 E BAY ST 21RT BURGLARY RESIDENCE TELELSERVE
150831596777 8-31 09:48 13600 BENTON ST 63 DISPUTE
150831596746 8-31 09:47 11000 BEACH BLVD 9T THEFT (TELESERVE)
150831596787 8-31 09:47 W 8TH ST AND N MYRTLE AVE 73 DRUG INVESTIGATION
150831596774 8-31 09:46 6200 HIGH TIDE BLVD 21CT BURGLARY CONVEYANCE TELESERVE
150831596744 8-31 09:46 S EDGEWOOD AVE AND ROOSEVELT BLVD 3T HIT AND RUN CRASH - TELESERVE
150831596735 8-31 09:44 3900 PARK ST 3T HIT AND RUN CRASH - TELESERVE
150831596779 8-31 09:41 7400 N LAURA ST 13 SUSPICIOUS PERSON
150831596780 8-31 09:40 500 E BAY ST 21RT BURGLARY RESIDENCE TELELSERVE
150831596778 8-31 09:39 MELSON AVE AND COMMONWEALTH AVE 13 SUSPICIOUS PERSON
150831596764 8-31 09:39 1300 CLEMENTS WOODS LN 32 BURGLAR ALARM - AUDIBLE
150831596759 8-31 09:39 1900 ART MUSEUM DR 3 HIT AND RUN CRASH
150831596768 8-31 09:38 S I295 EXPWY AND BLANDING BLVD 16 ROAD OBSTRUCTION
150831596770 8-31 09:38 SUNI PINES BLVD AND BEACH BLVD 1066 CANCEL
150831596765 8-31 09:37 S I295 EXPWY AND ROOSEVELT BLVD 16 ROAD OBSTRUCTION
150831596723 8-31 09:37 1800 MC GIRTS POINT BLVD 3 HIT AND RUN CRASH
150831596715 8-31 09:37 9400 SAN JOSE BLVD 95IDT IDENTITY THEFT TELESERVE
150831596766 8-31 09:36 500 E BAY ST 21RT BURGLARY RESIDENCE TELELSERVE
150831596762 8-31 09:35 500 E BAY ST 21RT BURGLARY RESIDENCE TELELSERVE
150831596754 8-31 09:34 600 MONUMENT RD 63 DISPUTE
150831596752 8-31 09:33 500 E BAY ST 21RT BURGLARY RESIDENCE TELELSERVE
150831596750 8-31 09:32 5200 NORWOOD AVE 63 DISPUTE
150831596749 8-31 09:32 HAMMOND BLVD AND NORMANDY BLVD 1050 TRAFFIC STOP
150831596748 8-31 09:31 500 BAY E ST 21RT BURGLARY RESIDENCE TELELSERVE
150831596747 8-31 09:31 500 E BAY ST 21RT BURGLARY RESIDENCE TELELSERVE
150831596740 8-31 09:30 FIAT LN AND FALCON ST 22 DOMESTIC
150831596675 8-31 09:30 8400 N FROST ST 63 DISPUTE
150831596742 8-31 09:30 500 E BAY ST 21RT BURGLARY RESIDENCE TELELSERVE
150831596737 8-31 09:30 5600 WOLF CREEK DR 1066 CANCEL
150831596741 8-31 09:30 500 E BAY ST 21R BURGLARY RESIDENCE
150831596684 8-31 09:29 3400 S DOCKSIDER DR 32 BURGLAR ALARM - AUDIBLE
150831596724 8-31 09:29 COLLINS RD AND ROOSEVELT BLVD 11 ABANDONED VEHICLE
150831596739 8-31 09:29 4400 WABASH AVE 95 FRAUD/FORGED (CHECK, ID, RX)
150831596738 8-31 09:29 500 E BAY ST 21RT BURGLARY RESIDENCE TELELSERVE
150831596736 8-31 09:29 500 E BAY ST 21RT BURGLARY RESIDENCE TELELSERVE
150831596646 8-31 09:28 4300 ST AUGUSTINE RD 96 ASSIST MOTORIST
150831596734 8-31 09:28 500 E BAY ST 21R BURGLARY RESIDENCE
150831596669 8-31 09:28 3200 EMERSON ST 70 COUNTERFEIT
150831596636 8-31 09:27 EDISON AVE AND NIXON ST 80 PROSTITUTION (ONLY)
150831596729 8-31 09:27 100 S BUCKMAN BRG 12 RECKLESS DRIVER
150831596652 8-31 09:26 1500 REDBIRD CREEK DR 9 THEFT
150831596730 8-31 09:26 11900 BEACH BLVD 13 SUSPICIOUS PERSON
150831596727 8-31 09:25 7200 MERRILL RD 63 DISPUTE
150831596717 8-31 09:24 3000 DANUBE CT 1066 CANCEL
150831596721 8-31 09:23 2800 CALLOWAY CIR 27 MENTALLY ILL PERSON
150831596720 8-31 09:21 UNIVERSITY BLVD AND FT CAROLINE RD 13 SUSPICIOUS PERSON
150831596712 8-31 09:21 BEACH BLVD AND S ST JOHNS BLUFF RD 9T THEFT (TELESERVE)
150831596713 8-31 09:21 1600 MORGAN ST 3 HIT AND RUN CRASH
150831596709 8-31 09:21 3000 BRIGHT EAGLE DR 9T THEFT (TELESERVE)
150831596666 8-31 09:19 100 E 1ST ST 63 DISPUTE
150831596696 8-31 09:18 PARK ST AND CASSAT AVE 3T HIT AND RUN CRASH - TELESERVE
150831596707 8-31 09:17 S I295 EXPWY AND MERRILL RD 16 ROAD OBSTRUCTION
150831596710 8-31 09:17 HENDRICKS AVE AND EMERSON ST 27 MENTALLY ILL PERSON
150831596692 8-31 09:16 2200 BRADFORD ST 21R BURGLARY RESIDENCE
150831596623 8-31 09:15 4800 BLACKWOOD FOREST DR 21C BURGLARY CONVEYANCE
150831596680 8-31 09:15 6000 S PEELER RD 50 FOUND/ABANDONED PROPERTY
150831596708 8-31 09:14 200 W UNION ST 70 COUNTERFEIT
150831596674 8-31 09:14 1800 E 8TH ST 21B BURGLARY BUSINESS
150831596686 8-31 09:14 2200 W BEAVER ST 37 UNVERIFIED 911 CALL
150831596701 8-31 09:12 2500 COMMONWEALTH AVE 50 FOUND/ABANDONED PROPERTY
150831596548 8-31 09:12 7700 PLANTATION BAY DR 10 VEHICLE THEFT
150831596642 8-31 09:12 5300 LENOX AVE 14 VANDALISM
150831596700 8-31 09:11 3800 PRITMORE RD 50 FOUND/ABANDONED PROPERTY
150831596699 8-31 09:10 9800 OLD BAYMEADOWS RD 1066 CANCEL
150831596641 8-31 09:10 10200 W BEAVER ST 63 DISPUTE
150831596698 8-31 09:09 5500 NORWOOD AVE 63 DISPUTE
150831596688 8-31 09:09 9300 PROSPERITY LAKE DR 3 HIT AND RUN CRASH
150831596694 8-31 09:09 2000 JAMMES RD 32 BURGLAR ALARM - AUDIBLE
150831596677 8-31 09:08 1000 N MAIN ST 4 AUTO CRASH
150831596693 8-31 09:08 4000 DUNN AVE 12 RECKLESS DRIVER
150831596690 8-31 09:07 N MC DUFF AVE AND ORCHARD ST 13 SUSPICIOUS PERSON
150831596685 8-31 09:06 8300 HAVERHILL ST 9T THEFT (TELESERVE)
150831596658 8-31 09:05 4400 N GOODBYS HIDEAWAY DR 32 BURGLAR ALARM - AUDIBLE
150831596681 8-31 09:04 8800 PERIMETER PARK BLVD 4 AUTO CRASH
150831596682 8-31 09:04 1000 ARCO DR 14R VANDALISM RESIDENCE
150831596678 8-31 09:01 10100 BEDFORD LAKES CT 21B BURGLARY BUSINESS
150831596661 8-31 09:01 1000 BROWARD RD 21C BURGLARY CONVEYANCE
150831596559 8-31 09:01 1000 BROWARD RD 21C BURGLARY CONVEYANCE
150831596580 8-31 09:00 6300 TOWNSEND RD 13 SUSPICIOUS PERSON
150831596668 8-31 08:59 13700 LAKE NEWMAN ST 10 VEHICLE THEFT
150831596670 8-31 08:58 7500 ARLINGTON EXPWY 1066 CANCEL
150831596672 8-31 08:58 100 N DAMES POINT BRG 96 ASSIST MOTORIST
150831596624 8-31 08:58 10000 COLONIAL CREEK LN 9T THEFT (TELESERVE)
150831596656 8-31 08:57 BAYMEADOWS RD AND S OLD KINGS RD 4 AUTO CRASH
150831596647 8-31 08:57 4700 ORTEGA BLVD 37 UNVERIFIED 911 CALL
150831596667 8-31 08:55 CAMP CREEK DR AND RUNNING RIVER RD 13 SUSPICIOUS PERSON
150831596630 8-31 08:55 5100 SHANNON AVE 14CT VANDALISM CONVEYANCE TELESERVE
150831596655 8-31 08:55 4100 E LEONARD CIR 54 ILLEGALLY PARKED CAR
150831596665 8-31 08:54 N I95 EXPWY AND BAYMEADOWS RD 76 ASSIST OTHER AGENCY
150831596662 8-31 08:53 PARK ST AND ROOSEVELT BLVD 4 AUTO CRASH
150831596657 8-31 08:52 N JOEANDY RD AND GIRVIN RD 16 ROAD OBSTRUCTION
150831596637 8-31 08:49 200 CHARLES AVE 63 DISPUTE
150831596650 8-31 08:48 SOUTHSIDE BLVD/CARGAL ST 16 ROAD OBSTRUCTION
150831596649 8-31 08:48 1900 SPEARING ST 0 61 FIGHT W/WEAPON
150831596544 8-31 08:47 1600 EL CAMINO RD 1066 CANCEL
150831596614 8-31 08:46 1100 ISLAND POINT DR 21CT BURGLARY CONVEYANCE TELESERVE
150831596640 8-31 08:45 S CHAFFEE RD AND W BEAVER ST 16 ROAD OBSTRUCTION
150831596644 8-31 08:45 ARLINGTON RD AND CESERY BLVD 13 SUSPICIOUS PERSON
150831596643 8-31 08:45 E I10 EXPWY AND STOCKTON ST 4 AUTO CRASH
150831596514 8-31 08:45 800 MAMIE RD 19 ANIMAL INVESTIGATION
150831596504 8-31 08:44 6300 W IAN CHAD DR 19 ANIMAL INVESTIGATION
150831596639 8-31 08:42 3100 FLOWER GARDEN LN 21C BURGLARY CONVEYANCE
150831596638 8-31 08:42 DUVAL RD AND N I295 EXPWY 96 ASSIST MOTORIST
150831596570 8-31 08:42 5500 COMMONWEALTH AVE 95 FRAUD/FORGED (CHECK, ID, RX)
150831596633 8-31 08:41 6100 W ARDISIA RD 4 AUTO CRASH
150831596606 8-31 08:40 100 EVERBANK FIELD DR 86T LOST PROPERTY (TELESERVE)
150831596631 8-31 08:40 1300 W 30TH ST 32 BURGLAR ALARM - AUDIBLE
150831596635 8-31 08:39 WILSON BLVD AND S LANE AVE 1050 TRAFFIC STOP
150831596531 8-31 08:39 2600 S ST JOHNS BLUFF RD 63 DISPUTE
150831596622 8-31 08:37 N LIBERTY ST AND MARTIN LUTHER KING JR PKWY 16 ROAD OBSTRUCTION
150831596598 8-31 08:37 1900 HUBBARD ST 3 HIT AND RUN CRASH
150831596629 8-31 08:37 14400 JOSE VEDRA BLVD 4 AUTO CRASH
150831596628 8-31 08:36 5500 MONCRIEF RD 9T THEFT (TELESERVE)
150831596616 8-31 08:34 S CHAFFEE RD AND W BEAVER ST 4 AUTO CRASH
150831596594 8-31 08:33 3600 S UNIVERSITY BLVD 10 VEHICLE THEFT
150831596566 8-31 08:30 11400 MANDARIN RIDGE LN 21R BURGLARY RESIDENCE
150831596600 8-31 08:30 1600 UNIVERSITY BLVD 21B BURGLARY BUSINESS
150831596601 8-31 08:29 ATLANTIC BLVD AND ANNISTON RD 4 AUTO CRASH
150831596591 8-31 08:26 10800 HIGH RIDGE RD 9T THEFT (TELESERVE)
150831596602 8-31 08:26 2800 WONDERWOOD LN 22 DOMESTIC
150831596603 8-31 08:26 MONUMENT RD AND MC CORMICK RD 12 RECKLESS DRIVER
150831596597 8-31 08:25 LONE STAR RD AND SAMONTEE RD 4 AUTO CRASH
150831596590 8-31 08:24 S I95 EXPWY AND EMERSON ST 96 ASSIST MOTORIST
150831596589 8-31 08:23 2700 HAMILTON CIR 9T THEFT (TELESERVE)
150831596595 8-31 08:21 ALTA/PORT JAX 1050 TRAFFIC STOP
150831596587 8-31 08:20 N WASHINGTON ST AND E DUVAL ST 13 SUSPICIOUS PERSON
150831596588 8-31 08:19 9400 ATLANTIC BLVD 32 BURGLAR ALARM - AUDIBLE
150831596525 8-31 08:18 1600 MINERVA AVE 63 DISPUTE
150831596575 8-31 08:18 10200 W BEAVER ST 63 DISPUTE
150831596582 8-31 08:17 13600 COMAN RD 63 DISPUTE
150831596579 8-31 08:16 2600 N COLUMBINE DR 9T THEFT (TELESERVE)
150831596576 8-31 08:16 HODGES BLVD AND J TURNER BUTLER BLVD 4 AUTO CRASH
150831596558 8-31 08:14 2200 N TWIN PINES CIR 1066 CANCEL
150831596571 8-31 08:14 3800 PRITMORE RD 61 FIGHT
150831596564 8-31 08:13 UNIVERSITY BLVD AND ARLINGTON RD 12 RECKLESS DRIVER
150831596567 8-31 08:10 E 16TH ST AND N MAIN ST 1050 TRAFFIC STOP
150831596556 8-31 08:09 S ARLINGTON RD AND CRANE AVE 16 ROAD OBSTRUCTION
150831596562 8-31 08:09 13300 LOW TIDE WAY 21C BURGLARY CONVEYANCE
150831596550 8-31 08:07 6900 W SOUTHERN OAKS DR 6388 DISPUTE WITH ASSAULT
150831596563 8-31 08:06 900 N EDGEWOOD AVE 76 ASSIST OTHER AGENCY
150831596555 8-31 08:05 PHILLIPS HWY AND WISHART ST 91 TRAFFIC LIGHT/RR CROSSING MALFUNCTION
150831596560 8-31 08:03 PHILLIPS HWY AND WISHART ST 38 TRAFFIC ASSIGNMENT
150831596557 8-31 08:03 BAYMEADOWS RD AND BRIERWOOD RD 4 AUTO CRASH
150831596552 8-31 08:02 WILEY RD AND N OLD MIDDLEBURG RD 3 HIT AND RUN CRASH
150827588802 8-31 08:01 4200 HOOD RD 11 ABANDONED VEHICLE
150831596551 8-31 08:01 2800 W 6TH ST 8 MISSING PERSON
150831596553 8-31 08:00 400 W FORSYTH ST 13 SUSPICIOUS PERSON
150831596543 8-31 07:59 S EDGEWOOD AVE AND ROOSEVELT BLVD 4 AUTO CRASH
150831596546 8-31 07:59 1500 WHITLOCK AVE 32 BURGLAR ALARM - AUDIBLE
150831596549 8-31 07:59 700 W MONROE ST 1050 TRAFFIC STOP
150831596515 8-31 07:57 1200 S LANE AVE 10J VEHICLE THEFT JUST OCCURRED
150831596538 8-31 07:56 13300 OCEAN MIST DR 21C BURGLARY CONVEYANCE
150831596540 8-31 07:56 2700 POST ST 32X SILENT ALARM (ROBBERY PANIC OR AWARE)
150831596542 8-31 07:56 WILSON BLVD AND S LANE AVE 3 HIT AND RUN CRASH
150831596541 8-31 07:55 WB JTB/SOUTHSIDE 4 AUTO CRASH
150831596539 8-31 07:53 5200 ANISA CT 10 VEHICLE THEFT
150831596502 8-31 07:53 10900 ATLANTIC BLVD 32 BURGLAR ALARM - AUDIBLE
150831596533 8-31 07:52 1100 CESERY BLVD 3 HIT AND RUN CRASH
150831596494 8-31 07:52 N KEYSTONE DR AND ART MUSEUM DR 13 SUSPICIOUS PERSON
150831596527 8-31 07:50 103RD ST AND HARLOW BLVD 38 TRAFFIC ASSIGNMENT
150831596534 8-31 07:50 600 W U S 90 HWY 1050 TRAFFIC STOP
150831596532 8-31 07:50 5600 EDENFIELD RD 21C BURGLARY CONVEYANCE
150831596529 8-31 07:49 8000 ARLINGTON EXPWY 1050 TRAFFIC STOP
150831596526 8-31 07:48 LONE STAR RD AND TRACY RD 12 RECKLESS DRIVER
150831596523 8-31 07:47 10100 BEACH BLVD 4 AUTO CRASH
150831596517 8-31 07:47 2700 SCOTT MILL LN 21R BURGLARY RESIDENCE
150831596507 8-31 07:47 9700 WOODROSE LN 32 BURGLAR ALARM - AUDIBLE
150831596518 8-31 07:46 J TURNER BUTLER BLVD AND BELFORT RD 4 AUTO CRASH
150831596508 8-31 07:44 2000 BUCKMAN ST 32 BURGLAR ALARM - AUDIBLE
150831596485 8-31 07:44 800 ARLINGTON RIVER DR 63 DISPUTE
150831596478 8-31 07:44 5900 LENOX AVE 13 SUSPICIOUS PERSON
150831596465 8-31 07:43 4300 CONFEDERATE POINT RD 21C BURGLARY CONVEYANCE
150831596431 8-31 07:43 4300 CONFEDERATE POINT RD 14C VANDALISM CONVEYANCE
150831596513 8-31 07:42 N I295 EXPWY AND E I10 EXPWY 4 AUTO CRASH
150831596512 8-31 07:42 700 MONUMENT RD 27 MENTALLY ILL PERSON
150831596510 8-31 07:41 12000 CANCUN DR 32 BURGLAR ALARM - AUDIBLE
150831596414 8-31 07:40 800 BROWARD RD 21C BURGLARY CONVEYANCE
150831596509 8-31 07:40 3300 DAWSON ST 22 DOMESTIC
150831596469 8-31 07:39 6000 YOUNGERMAN CIR 63 DISPUTE
150831596506 8-31 07:38 1800 SAN MARCO BLVD 63 DISPUTE
150831596503 8-31 07:37 E 16TH ST AND N MAIN ST 1050 TRAFFIC STOP
150831596500 8-31 07:36 S OLD KINGS RD AND BAYMEADOWS RD 27 MENTALLY ILL PERSON
150831596492 8-31 07:36 13300 OCEAN MIST DR 21C BURGLARY CONVEYANCE
150831596497 8-31 07:35 100 N JULIA ST 13 SUSPICIOUS PERSON
150831596499 8-31 07:35 13000 BARTRAM PARK BLVD 38 TRAFFIC ASSIGNMENT
150831596498 8-31 07:35 S ARLINGTON RD AND ATLANTIC BLVD 1050 TRAFFIC STOP
150831596495 8-31 07:34 3900 OLD FIELD CROSSING 1066 CANCEL
150831596490 8-31 07:34 S LANE AVE AND W BEAVER ST 11 ABANDONED VEHICLE
150831596488 8-31 07:33 1900 N MAIN ST 32 BURGLAR ALARM - AUDIBLE
150831596487 8-31 07:32 8600 BERESFORD LN 22 DOMESTIC
150831596489 8-31 07:32 2700 COMMONWEALTH 96 ASSIST MOTORIST
150831596484 8-31 07:31 7200 MERRILL RD 63 DISPUTE
150831596486 8-31 07:31 S I295 EXPWY AND BEACH BLVD 4 AUTO CRASH
150831596477 8-31 07:30 3200 E GARDEN ACRES CT 1066 CANCEL
150831596480 8-31 07:30 5800 S BARNES RD 88 ASSAULT
150831596483 8-31 07:29 I295/MERRILL 4 AUTO CRASH
150831596482 8-31 07:28 3900 OLD FIELD CROSSING 1050 TRAFFIC STOP
150831596472 8-31 07:28 1000 CHERRY ST 32 BURGLAR ALARM - AUDIBLE
150831596460 8-31 07:28 DOWNING ST AND WILLOW BRANCH AVE 56 JUVENILE COMPLAINT
150831596479 8-31 07:27 UNIVERSITY BLVD AND FLORAL BLUFF RD 11 ABANDONED VEHICLE
150831596473 8-31 07:23 ROOSEVELT BLVD AND ADRIAN CT 4 AUTO CRASH
150831596476 8-31 07:23 12600 SAPP RD 76 ASSIST OTHER AGENCY
150831596474 8-31 07:21 E I10 EXPWY AND GREELAND AV EXIT I10E RP 12 RECKLESS DRIVER
150831596471 8-31 07:20 S I295 EXPWY 4 AUTO CRASH
150831596467 8-31 07:18 6800 BELFORT OAKS PL 1066 CANCEL
150831596449 8-31 07:18 5700 BEGONIA RD 22 DOMESTIC
150831596459 8-31 07:18 500 S MC DUFF AVE 13 SUSPICIOUS PERSON
150831596445 8-31 07:16 9500 SCADLOCKE RD 14C VANDALISM CONVEYANCE
150831596464 8-31 07:16 3100 S KERNAN BLVD 1066 CANCEL
150831596462 8-31 07:16 NORMANDY BLVD AND S CHAFFEE RD 4 AUTO CRASH
150831596461 8-31 07:15 5600 EDENFIELD RD 10 VEHICLE THEFT
150831596456 8-31 07:14 7000 DAHLGREN CT 32X SILENT ALARM (ROBBERY PANIC OR AWARE)
150831596417 8-31 07:14 4300 CONFEDERATE POINT RD 21C BURGLARY CONVEYANCE
150831596458 8-31 07:14 S I295 EXPWY AND BLANDING BLVD 4 AUTO CRASH
150831596452 8-31 07:13 13600 PHILLIPS HWY 9 THEFT
150831596455 8-31 07:12 600 CANDLEBARK DR 54 ILLEGALLY PARKED CAR
150831596448 8-31 07:10 100 SHIRCLIFF WAY 4 AUTO CRASH
150831596447 8-31 07:07 REMINGTON ST AND WILLOW BRANCH AVE 12 RECKLESS DRIVER
150831596444 8-31 07:06 REMINGTON ST AND WILLOW BRANCH AVE 56 JUVENILE COMPLAINT
150831596443 8-31 07:06 4100 E LEONARD CIR 63 DISPUTE
150831596435 8-31 07:06 7200 BLANDING BLVD 1066 CANCEL
150831596441 8-31 07:05 5300 ROANOKE BLVD 63 DISPUTE
150831596434 8-31 07:05 11400 CARSON LAKE DR 21R BURGLARY RESIDENCE
150831596442 8-31 07:05 1400 RON RD 88P ASSAULT IN PROGRESS
150831596439 8-31 07:03 1000 MARGARET ST 32 BURGLAR ALARM - AUDIBLE
150831596437 8-31 07:03 E I10 EXPWY AND S CHAFFEE RD 4 AUTO CRASH
150831596438 8-31 07:03 N I295 EXPWY AND WILSON BLVD 4 AUTO CRASH
150831596433 8-31 07:02 PHILLIPS HWY AND N SR9B EXPWY 4 AUTO CRASH
150831596421 8-31 07:02 1200 LABELLE ST 63 DISPUTE
150831596432 8-31 07:00 W 38TH ST AND N MAIN ST 19 ANIMAL INVESTIGATION
150831596430 8-31 07:00 14700 PHILLIPS HWY 4 AUTO CRASH
150831596429 8-31 06:58 6500 WHITE BLOSSOM CIR 63 DISPUTE
150831596427 8-31 06:58 8700 LONE STAR RD 32 BURGLAR ALARM - AUDIBLE
150831596426 8-31 06:56 ATLANTIC BLVD AND SPRING FOREST AVE 4 53 TRAFFIC CRASH PERSON INJURED
150831596424 8-31 06:55 S I95 EXPWY AND J TURNER BUTLER BLVD 12 RECKLESS DRIVER
150831596423 8-31 06:53 2000 MIDNIGHT MOON TRL 1066 CANCEL
150831596422 8-31 06:52 6800 BELFORT OAKS PL 1066 CANCEL
150831596416 8-31 06:48 WILSON BLVD AND FIRESTONE RD 9 THEFT
150831596394 8-31 06:43 4300 TIMUQUANA RD 32S BURGLAR ALARM - SILENT
150831596413 8-31 06:41 900 BROWARD RD 21C BURGLARY CONVEYANCE
150831596405 8-31 06:35 14500 OLD ST AUGUSTINE RD 27 MENTALLY ILL PERSON
150831596412 8-31 06:35 100 SISTER CITIES PLAZA 13 SUSPICIOUS PERSON
150831596408 8-31 06:34 1800 N DAVIS ST 9P THEFT IN PROGRESS
150831596411 8-31 06:33 MANDARIN/SAN JOSE 91 TRAFFIC LIGHT/RR CROSSING MALFUNCTION
150831596410 8-31 06:33 I10 EB/CHAFFEE 1050 TRAFFIC STOP
150831596409 8-31 06:33 S ELLIS RD AND PARK ST 13 SUSPICIOUS PERSON
150831596407 8-31 06:30 OLD ST AUGUSTINE RD AND LOSCO RD 3 53 HIT AND RUN CRASH W/FIRE
150831596406 8-31 06:30 E I10 EXPWY AND S CHAFFEE RD 4 AUTO CRASH
150831596403 8-31 06:25 W I10 EXPWY AND S I295 EXPWY 4 AUTO CRASH
150831596401 8-31 06:24 E I10 EXPWY 4 AUTO CRASH
150831596395 8-31 06:22 8700 ORME RD 9 THEFT
150831596399 8-31 06:20 3700 N LIBERTY ST 32S BURGLAR ALARM - SILENT
150831596372 8-31 06:15 3900 OLDFIELD CROSSING DR 22 DOMESTIC
150831596391 8-31 06:05 12200 N COBBLEFIELD CIR 22 DOMESTIC
150831596390 8-31 06:05 3000 E HORSESHOE DR 27 MENTALLY ILL PERSON
150831596389 8-31 06:03 OLD ST AUGUSTINE RD AND LOSCO RD 4 AUTO CRASH
150831596386 8-31 06:01 6900 SILVER LAKE TER 21CP BURGLARY CONVEYANCE IN PROGRESS
150831596385 8-31 06:00 1600 ANNISTON RD 1050 TRAFFIC STOP
150831596384 8-31 05:59 7300 GUM TREE RD 62 PERSON CUT
150831596366 8-31 05:59 4200 DUNN AVE 11 ABANDONED VEHICLE
150831596379 8-31 05:53 UNIVERSITY BLVD AND ARLINGTON RD 4 AUTO CRASH
150831596377 8-31 05:51 2900 LENOX AVE 13 SUSPICIOUS PERSON
150831596375 8-31 05:50 6200 PHILLIPS HWY 13 SUSPICIOUS PERSON
150831596373 8-31 05:47 6900 SILVER LAKE TER 21CP BURGLARY CONVEYANCE IN PROGRESS
150831596369 8-31 05:44 14700 BARTRAM SPRINGS PKWY 32 BURGLAR ALARM - AUDIBLE
150831596367 8-31 05:44 1700 GIRVIN RD 16 ROAD OBSTRUCTION
150831596361 8-31 05:43 300 E 8TH ST 88 ASSAULT
150831596365 8-31 05:39 ROO/MCD 1050 TRAFFIC STOP
150831596364 8-31 05:37 200 N ST JOHNS BLUFF RD 13 SUSPICIOUS PERSON
150831596358 8-31 05:33 2000 ART MUSEUM DR 32 BURGLAR ALARM - AUDIBLE
150831596362 8-31 05:32 W BEAVER ST AND S I295 EXPWY 4 AUTO CRASH
150831596363 8-31 05:32 2900 SEARCHWOOD DR 63 DISPUTE
150831596360 8-31 05:27 800 PRUDENTIAL DR 62 PERSON CUT
150831596359 8-31 05:25 600 E ADAMS ST 37 UNVERIFIED 911 CALL
150831596356 8-31 05:15 W I10 EXPWY AND S MC DUFF AVE 16 ROAD OBSTRUCTION
150831596353 8-31 05:06 N MAIN ST AND W 3RD ST 23IJ ROBBERY INDIVIDUAL JUST OCCD
150831596351 8-31 05:01 10600 PHILLIPS HWY 32 BURGLAR ALARM - AUDIBLE
150831596341 8-31 04:54 1500 S LANE AVE 13 SUSPICIOUS PERSON
150831596349 8-31 04:49 KINGS RD AND BARNETT ST 12 RECKLESS DRIVER
150831596347 8-31 04:44 SUPERIOR ST AND BEAVERBROOK PL 20 PROWLER
150831596346 8-31 04:43 6800 ATLANTIC BLVD 32 BURGLAR ALARM - AUDIBLE
150831596344 8-31 04:42 8300 DIX ELLIS TRL 96 ASSIST MOTORIST
150831596342 8-31 04:39 1000 LE BRUN DR 60 SUICIDE OR ATTEMPT
150831596339 8-31 04:36 400 W 8TH ST 63 DISPUTE
150831596335 8-31 04:33 5400 NORMANDY BLVD 32 BURGLAR ALARM - AUDIBLE
150831596338 8-31 04:32 HARTS RD AND DUNN AVE 13 SUSPICIOUS PERSON
150831596337 8-31 04:31 200 E STATE ST 32X SILENT ALARM (ROBBERY PANIC OR AWARE)
150831596334 8-31 04:26 N I95 EXPWY AND DUNN AVE 4 AUTO CRASH
150831596333 8-31 04:23 5600 EDENFIELD RD 2288 DOMESTIC DISPUTE WITH/ASSAULT
150831596330 8-31 04:16 5100 HOLLYCREST DR 73 DRUG INVESTIGATION
150831596321 8-31 04:10 2100 MAYPORT RD 4 AUTO CRASH
150831596314 8-31 03:56 MONCRIEF RD AND RESTLAWN DR 1050 TRAFFIC STOP
150831596313 8-31 03:56 BLAND/HARLOW 1050 TRAFFIC STOP
150831596311 8-31 03:51 600 E ADAMS ST 37 UNVERIFIED 911 CALL
150831596308 8-31 03:42 4600 SUFFOLK AVE 63 DISPUTE
150831596306 8-31 03:34 4200 PHILLIPS HWY 13 SUSPICIOUS PERSON
150831596305 8-31 03:33 9000 SAN JOSE BLVD 49 REPORT TO HOSPITAL
150831596304 8-31 03:32 8100 TARLING AVE 13 SUSPICIOUS PERSON
150831596303 8-31 03:31 500 A PHILIP RANDOLPH BLVD 1050 TRAFFIC STOP
150831596291 8-31 03:31 9400 S PRINCETON SQUARE BLVD 64 NOISE COMPLAINT
150831596302 8-31 03:31 3600 HEATHWOOD CT 13 SUSPICIOUS PERSON
150831596296 8-31 03:15 LANE/RILE 1050 TRAFFIC STOP
150831596292 8-31 03:14 1700 N MC DUFF AVE 21B BURGLARY BUSINESS
150831596290 8-31 03:11 100 S ELLIS RD 32S BURGLAR ALARM - SILENT
150831596289 8-31 03:10 9000 ATLANTIC BLVD 76 ASSIST OTHER AGENCY
150831596288 8-31 03:08 TROUT RIVER BLVD AND NEW KINGS RD 19 ANIMAL INVESTIGATION
150831596286 8-31 03:07 CASSAT AVE AND HOLLYCREST DR 73 DRUG INVESTIGATION
150831596285 8-31 03:07 ARLINGTON RD AND WHITLOCK AVE 4 53 TRAFFIC CRASH PERSON INJURED
150831596275 8-31 03:02 7000 BLANDING BLVD 32 BURGLAR ALARM - AUDIBLE
150831596282 8-31 03:02 1500 CASSAT 1050 TRAFFIC STOP